Terminal Aerodrome Forecast
Issued by NWS

Home | Current Version | Previous Version | Text Only | Print | Product List | Glossary On
Versions: 1 2 3 4 5 6 7 8 9 10 11 12 13 14 15 16 17 18 19 20 21 22 23 24 25
000
FTUS44 KOUN 301142
TAFLAW
TAF
KLAW 301142Z 3012/3112 12004KT 5SM -RA OVC040
      TEMPO 3012/3014 3SM TSRA BR OVC020CB
     FM301600 14012KT 5SM -RA OVC030
      TEMPO 3016/3020 3SM -TSRA BKN020CB
     FM302000 08012KT P6SM OVC025=

USA.gov is the U.S. government's official web portal to all federal, state and local government web resources and services.